NOAA 16 DEB, 41354

Orbit data source: Space-Track

NOAA 16 DEB, 41354 is space debris in SSO originally from a launch on Thu, 21 Sep 2000 UTC launched from the Air Force Western Test Range (AFWTR). Debris objects in space refer to the collection of defunct objects orbiting the Earth. Examples of debris include non-operational satellites, rocket bodies, and fragments generated from explosions, collisions, or faulty payload assembly.

Loading next visibility...
Identifier
41354, 2000-055HX
Orbit
SSO
Country
Flag of USUS
Related business
Manufacturer
Unknown
Mission
Spacecraft
Bus & Motor
Unknown
Mass
Unknown
Launch date (UTC)
2000-09-21 (26 years ago)
Launch vehicle
Unknown
Launch site
Air Force Western Test Range (AFWTR)
Object type
Payload
Rocket body
Debris
Shape & HBR
Unknown shape, 0.1 m
Radar Cross Section
Medium (>0.1 m² and <1 m²)

Expand to show TLE details & history
Last TLE update: 4 days ago

TLE from 4 days ago
0 NOAA 16 DEB
1 41354U 00055HX  26169.08850351  .00002070  00000-0  92747-3 0  9992
2 41354  98.6563 222.4087 0022585  80.6669 279.7062 14.23467873535896
Epoch: 2026-06-18T02:07Z
TLE epoch observation values (Epoch: 2026-06-18T02:07:26.703Z)
Latitude
-0.00002°
Longitude
-75.78941°
Altitude
813.866 km
Speed
7.448 km/s
True Right ascension
14h 49m 38s
True Declination
0° 00' 00"
Sunlit
Object was in full shadow at epoch
Visualization orbit readout
Latitude
Unknown
Longitude
Unknown
Altitude
Unknown
Speed
Unknown
Apparent Right ascension
Unknown
Apparent Declination
Unknown
Sunlit
N/A
Visualization observer readout
Local Sidereal Time
21:36:14
Azimuth
Unknown
Elevation
Unknown
Doppler factor
Unknown
Orbital elements
Apogee altitude
827.036 km
Perigee altitude
794.564 km
Semi-major axis
7,188.937 km
Eccentricity
0.00226
Inclination
98.6563°
RAAN
222.4087°
Arg. of periapsis
80.6669°
True anomaly
279.45098°
Mean anomaly
279.7062°
Eccentric anomaly
279.5786°
Mean motion
3.56079 °/min
Orbital period
101.1 mins
BSTAR
0.00092747
Loading maneuver chart data...
Computing Atmospheric mass density...
Loading historical data...
Loading historical data...
Loading historical data...
Loading historical data...
Loading historical data...
Loading historical data...
Loading historical data...

Documentation

Showing up to 5 results
|